Terminal Aerodrome Forecast
Issued by NWS

Current Version | Previous Version | Graphics & Text | Print | Product List | Glossary On
Versions: 1 2 3 4 5 6 7 8 9 10 11 12 13 14 15 16 17 18 19 20 21 22 23 24 25
000
FTUS41 KPBZ 261734
TAFHLG
TAF
KHLG 261734Z 2618/2718 28007KT P6SM SCT025 BKN040
     FM270900 VRB03KT 3SM BR SCT025
     FM271200 VRB03KT 1SM BR SCT003
     FM271500 35003KT P6SM BKN035=

USA.gov is the U.S. government's official web portal to all federal, state and local government web resources and services.